Location: Melbourne
(37.8666°S, 145.1333°E)
Time: 02:25:49
(UTC+10:00)

Daily predictions for brighter satellites

Satellite Brightness Start Highest point End
(mag) Time Altitude Azimuth Time Altitude Azimuth Time Altitude Azimuth
USA 184 4.3 03:47:16 52° S 03:49:48 67° ESE 04:23:49 10° NE
SL-16 R/B 4.1 04:00:26 24° ENE 04:01:05 25° ENE 04:05:36 10° SE
Cosmos 2322 Rocket 3.6 04:14:39 35° E 04:14:39 35° E 04:19:31 10° SE
CZ-3 R/B 3.7 04:15:23 45° WNW 04:22:21 59° N 04:30:43 10° ENE
Hubble Space Telescope 3.9 04:25:29 11° NE 04:25:29 11° NE 04:25:45 10° NE
Cosmos 1980 Rocket 4.2 04:49:34 17° S 04:49:34 17° S 04:50:53 10° SSE
Cosmos 2360 Rocket 4.5 04:42:10 10° NNE 04:46:27 22° E 04:50:46 10° SE
CZ-4 R/B 3.4 04:46:01 10° NE 04:49:28 27° ESE 04:50:35 24° SE
CSL-04 Rocket 4.3 04:44:47 10° NNE 04:48:38 48° NNE 04:48:38 48° NNE
Cosmos 1680 Rocket 3.8 04:50:37 65° NE 04:50:54 66° ENE 04:56:12 10° SSE
Cosmos 44 Rocket 3.8 04:56:39 53° ESE 04:56:39 53° ESE 05:01:19 10° NE
MOS 1 Rocket 3.8 04:54:58 10° NNE 05:00:13 69° ESE 05:02:57 30° S
Cosmos 304 Rocket 3.9 05:02:34 67° NE 05:03:00 72° ENE 05:07:51 10° SSE
IRS-1A Rocket 4.1 05:01:23 10° NNE 05:06:54 81° WNW 05:07:49 63° SSW
Cosmos 2263 Rocket 3.4 05:03:58 16° S 05:08:01 38° ESE 05:13:14 10° NE
NOSS 3-4 (A) 4.1 05:06:37 26° SSW 05:10:44 58° SE 05:17:21 10° NE
NOSS 3-4 (C) 4.2 05:06:42 25° SSW 05:10:50 58° SE 05:17:25 10° NE
Nadezhda 3 Rocket 3.8 05:05:56 10° NNW 05:12:08 74° W 05:18:29 10° S
Meteor 2-10 Rocket 3.8 05:12:40 10° N 05:18:09 74° E 05:23:55 10° SSE
ERBS 3.5 05:20:14 40° SE 05:20:14 40° SE 05:23:39 10° ENE
Cosmos 1674 Rocket 3.4 05:20:14 10° N 05:24:38 86° W 05:29:10 10° S
MOS 1 4.2 05:21:45 10° NNE 05:27:27 88° ESE 05:33:12 10° SSW
Cosmos 1782 2.8 05:24:49 10° N 05:28:49 83° E 05:32:52 10° S
Cosmos 909 Rocket 4.5 05:23:51 18° SSW 05:30:50 82° WNW 05:37:55 10° NNE
Cosmos 1238 Rocket 2.9 05:27:32 10° N 05:32:23 87° WSW 05:36:22 10° S
Meteor 2-21 4.4 05:29:21 10° S 05:35:39 87° E 05:41:49 10° N
USA 116 4.0 05:38:31 10° S 05:42:54 75° WSW 05:47:46 10° NNW
Tiangong 1 1.4 05:43:10 52° NNW 05:43:10 52° NNW 05:46:03 10° NE
Cosmos 2112 Rocket 4.2 05:41:15 18° NW 05:44:50 46° WSW 05:50:00 10° S
SL-16 R/B 2.5 05:42:30 28° WNW 05:44:52 42° WSW 05:50:18 10° S
Meteor 1-27 Rocket 4.2 05:39:15 10° N 05:45:05 67° E 05:50:54 10° SSE
Okean 3 4.3 05:42:29 10° N 05:46:41 54° E 05:50:58 10° SSE
YAOGAN 1 2.5 05:44:09 10° NNE 05:48:31 85° W 05:52:57 10° SSW
Meteor 1-25 Rocket 4.3 05:45:39 10° SSW 05:51:12 53° W 05:56:38 10° N
Meteor 2-6 Rocket 4.2 05:48:39 10° NNW 05:54:26 73° W 06:00:26 10° S
Cosmos 1624 Rocket 4.2 05:50:17 10° SSW 05:55:40 73° ESE 06:00:56 10° NNE
Thor Agena Rocket 4.4 05:51:23 10° S 05:55:22 27° WSW 05:55:22 27° WSW
Lacrosse 5 2.9 05:52:41 10° NNW 05:57:34 48° NE 06:02:29 10° SE
SMAP 3.0 05:53:10 10° NNE 05:57:51 86° WNW 06:02:37 10° SSW
Cosmos 2322 Rocket 2.9 05:56:38 25° W 05:58:25 30° WSW 06:03:25 10° S
SPOT 3 Rocket 3.9 05:53:36 10° N 05:58:34 43° W 06:03:04 13° SSW
IDEFIX/ARIANE 42P 3.6 05:54:44 10° NE 05:59:46 48° ESE 06:04:50 10° S
Cosmos 1606 2.6 05:56:27 10° NNW 06:00:16 72° W 06:04:12 10° S
Meteor 1-10 Rocket 4.5 05:56:39 10° NNW 06:02:24 51° WSW 06:08:16 10° S
Molniya-3 4.3 06:00:42 18° SSW 06:02:51 65° ESE 06:13:48 10° NE
Hubble Space Telescope 2.8 06:00:52 12° NW 06:03:10 18° N 06:06:04 10° NNE
OTV 4 0.5 06:03:10 40° W 06:04:03 66° NNW 06:07:01 10° ENE
SAR-Lupe-1 4.0 06:03:38 10° N 06:07:13 76° WNW 06:10:53 10° SSW
Cosmos 2084 Rocket 3.7 06:04:03 15° SSW 06:08:01 78° ESE 06:12:29 10° NE
CORIOLIS 4.1 06:03:28 10° N 06:08:56 78° WNW 06:14:26 10° SSW
SAR-Lupe-4 3.6 06:07:07 10° N 06:10:40 59° WNW 06:14:17 10° SSW
SL-24 R/B 4.4 06:09:36 10° NNW 06:12:57 33° W 06:15:23 17° SW
Cosmos 1605 Rocket 4.0 06:09:56 10° SSW 06:16:17 71° W 06:22:27 10° N
Blok-ML 3.4 06:17:05 25° WSW 06:18:14 42° NW 06:23:09 10° NNE
PAYLOAD A 3.9 06:13:54 10° N 06:18:32 57° W 06:23:16 10° SSW
Cosmos 1821 Rocket 4.4 06:13:49 10° SSW 06:19:24 37° W 06:24:57 10° NNW
Cosmos 1484 Rocket 4.2 06:19:19 10° NE 06:23:09 42° ESE 06:27:01 10° S
RESURS DK-1 3.8 06:19:24 10° S 06:23:19 36° ESE 06:27:11 10° NE
CZ-4 R/B 2.7 06:21:24 10° NW 06:24:29 21° W 06:26:39 14° SW
MONITOR-E 4.3 06:23:34 10° N 06:26:49 60° W 06:30:07 10° SSW
Molniya-2 4.0 06:26:25 10° SSW 06:29:00 66° ESE 06:37:20 10° NE
Cosmos 2360 Rocket 2.5 06:24:37 10° NW 06:30:04 46° WSW 06:35:35 10° S
Okean 1 Rocket 4.0 06:28:14 10° SSW 06:32:04 28° W 06:35:49 10° NNW
Helios 1B rocket 3.3 06:28:47 10° SSE 06:32:58 57° E 06:37:05 10° N
USA 102 2.9 06:35:35 10° SSE 06:37:20 68° ENE 06:40:05 10° NNW
Cosmos 2100 Rocket 4.3 06:33:53 10° S 06:40:15 77° E 06:46:28 10° N
Meteor 2-8 Rocket 4.4 06:34:24 10° NNW 06:40:27 67° W 06:46:37 10° S
Cosmos 2322 4.2 06:36:24 10° NW 06:41:42 38° WSW 06:47:02 10° S
Cosmos 1400 Rocket 3.7 06:39:03 10° S 06:43:14 57° E 06:47:18 10° NNE
Cosmos 44 3.8 06:40:57 10° SW 06:45:00 35° WNW 06:49:14 10° N
Cosmos 2056 Rocket 4.0 06:41:26 10° SSW 06:46:26 41° WNW 06:51:27 10° N
CZ-2C R/B 2.7 06:42:16 10° N 06:46:46 45° W 06:51:27 10° SSW
Spot 2 Rocket 4.3 06:41:59 10° NNE 06:47:00 56° ESE 06:52:05 10° S
Resurs 01 Rocket 2.6 06:43:28 10° NNE 06:47:45 49° ESE 06:52:05 10° S
FREGAT/IRIS 3.9 06:45:16 10° NNE 06:48:18 46° ESE 06:51:24 10° S
Cosmos 1536 3.0 06:44:31 10° SSW 06:48:29 52° W 06:52:23 10° N
Cosmos 1975 Rocket 3.9 06:46:22 10° NW 06:50:16 30° WSW 06:54:13 10° SSW
Cosmos 2263 Rocket 3.2 06:47:04 10° SW 06:51:43 27° WNW 06:56:22 10° NNW
CZ-3A R/B 2.2 06:52:03 10° S 06:52:35 11° SSE 06:53:06 10° SE
Lacrosse 5 rocket 3.3 06:48:29 10° NNW 06:52:40 37° NE 06:56:46 10° ESE
Meteor 1-29 3.0 06:49:25 10° SSE 06:52:56 88° E 06:56:22 10° NNW
COSMO-SKYMED 1 2.9 06:51:37 10° S 06:55:50 46° WSW 07:00:01 10° NW
